Home   Weather   Spain   Las Palmas   Past weeks
Flag for Spain

Past Weather in Las Palmas, Canary Islands, Spain — Yesterday and Last 2 Weeks

Currently: 66 °F. Passing clouds. (Weather station: Las Palmas De Gran Canaria / Gando, Spain). See more current weather

Past Weather in Las Palmas — Graph

°F

Las Palmas Temperature Yesterday

Maximum temperature yesterday: 73 °F (at 12:30 pm)
Minimum temperature yesterday: 66 °F (at 12:00 am)
Average temperature yesterday: 69 °F

High & Low Weather Summary for the Past Weeks

 TemperatureHumidityPressure
High77 °F (May 8, 12:30 pm)88% (Apr 29, 7:30 pm)30.21 "Hg (Apr 29, 7:30 pm)
Low63 °F (Apr 28, 5:00 am)39% (May 8, 12:30 pm)29.89 "Hg (Apr 28, 2:30 am)
Average69 °F63%30.05 "Hg
* Reported Apr 28 12:00 am — May 13 12:30 am, Las Palmas. Weather by CustomWeather, © 2021

Note: Actual official high and low records may vary slightly from our data, if they occured in-between our weather recording intervals... More about our weather records

Las Palmas Weather History for the Previous 24 Hours

Scroll right to see more
 ConditionsComfort  
Time TempWeatherWind HumidityBarometerVisibility
12:30 am
Thu, May 13
66 °FPassing clouds.30 mph68%30.18 "HgN/A
12:00 am66 °FPassing clouds.28 mph68%30.18 "HgN/A
11:30 pm
Wed, May 12
66 °FPassing clouds.28 mph68%30.18 "HgN/A
11:00 pm68 °FPassing clouds.24 mph64%30.18 "HgN/A
10:30 pm68 °FPassing clouds.23 mph64%30.18 "HgN/A
10:00 pm68 °FPassing clouds.28 mph64%30.15 "HgN/A
9:30 pm68 °FPassing clouds.25 mph64%30.15 "HgN/A
9:00 pm68 °FPassing clouds.25 mph64%30.15 "HgN/A
8:30 pm68 °FPassing clouds.29 mph64%30.15 "HgN/A
8:00 pm70 °FPassing clouds.30 mph60%30.15 "HgN/A
7:30 pm70 °FPassing clouds.26 mph60%30.15 "HgN/A
7:00 pm70 °FPassing clouds.26 mph60%30.15 "HgN/A
6:30 pm72 °FPassing clouds.30 mph61%30.15 "HgN/A
6:00 pm72 °FPassing clouds.32 mph61%30.15 "HgN/A
5:30 pm73 °FPassing clouds.32 mph57%30.15 "HgN/A
5:00 pm73 °FPassing clouds.32 mph53%30.15 "HgN/A
4:30 pm73 °FPassing clouds.35 mph57%30.15 "HgN/A
4:00 pm72 °FPassing clouds.32 mph57%30.18 "HgN/A
3:30 pm73 °FPassing clouds.33 mph53%30.18 "HgN/A
3:00 pm73 °FPassing clouds.33 mph53%30.18 "HgN/A
2:30 pm73 °FPassing clouds.31 mph53%30.18 "HgN/A
2:00 pm73 °FPassing clouds.31 mph53%30.18 "HgN/A
1:30 pm73 °FPassing clouds.31 mph50%30.18 "HgN/A
1:00 pm73 °FScattered clouds.31 mph53%30.18 "HgN/A
12:30 pm73 °FScattered clouds.30 mph50%30.18 "HgN/A
12:00 pm72 °FScattered clouds.29 mph57%30.18 "HgN/A
11:30 am72 °FPartly sunny.25 mph53%30.18 "HgN/A
11:00 am70 °FPartly sunny.28 mph60%30.21 "HgN/A
10:30 am68 °FPartly sunny.29 mph60%30.18 "HgN/A
10:00 am68 °FPartly sunny.29 mph60%30.18 "HgN/A
9:30 am68 °FPartly sunny.26 mph60%30.18 "HgN/A
9:00 am68 °FPartly sunny.28 mph60%30.18 "HgN/A
8:30 am66 °FPartly sunny.20 mph64%30.18 "HgN/A
8:00 am66 °FPartly sunny.25 mph64%30.15 "HgN/A
7:30 am66 °FPartly sunny.22 mph64%30.15 "HgN/A
7:00 am66 °FPassing clouds.22 mph60%30.15 "HgN/A
6:30 am66 °FPassing clouds.22 mph64%30.15 "HgN/A
6:00 am66 °FPassing clouds.24 mph60%30.15 "HgN/A
5:30 am66 °FPassing clouds.25 mph64%30.15 "HgN/A
5:00 am66 °FPassing clouds.23 mph60%30.15 "HgN/A
4:30 am66 °FPassing clouds.22 mph60%30.15 "HgN/A
4:00 am66 °FPassing clouds.23 mph64%30.15 "HgN/A
3:30 am66 °FPassing clouds.24 mph64%30.18 "HgN/A
3:00 am66 °FPassing clouds.23 mph64%30.18 "HgN/A
2:30 am66 °FPassing clouds.21 mph68%30.18 "HgN/A
2:00 am66 °FPassing clouds.21 mph64%30.21 "HgN/A
Weather by CustomWeather, © 2021

See weather overview